Showing default

LEMUR 2 SPECIAL K, 48273

Orbit data source: Space-Track

LEMUR 2 SPECIAL K, 48273 is a payload satellite owned by Spire (US) in SSO that was launched on Thu, 29 Apr 2021 UTC via a VEGA launch vehicle from the French Guiana (FRGUI). Payload-class satellites include a variety of spacecraft equipped with specific instruments for various scientific and technological missions. These include communications satellites like Starlink; space stations such as the ISS; scientific satellites like the Hubble; Earth observation satellites from companies like Planet Labs, Umbra, and HawkEye 360; GPS; miniature CubeSats for education and research; and military/defense satellites.

Loading next visibility...
Identifier
48273, 2021-034F
Orbit
SSO
Country
Flag of USUS
Related business
Manufacturer
Spire/Glasgow
Mission
Operational Commercial Com/MetRO
Bus & Motor
CUBESAT 3U, Unknown motor
Mass
4.6 kg wet, 4.6 kg dry
Launch date (UTC)
2021-04-29 (5 years ago)
Launch vehicle
VEGA
Launch site
French Guiana (FRGUI)
Object type
Payload
Rocket body
Debris
Shape & HBR
Box + 2 Pan, 1.0 m
Radar Cross Section
0.054 m², Medium (>0.1 m² and < 1m²)

Expand to show TLE details & history
Last TLE update: 2 days ago

TLE from 2 days ago
0 LEMUR 2 SPECIAL K
1 48273U 21034F   26171.21881132  .00143897  00000-0  14311-2 0  9991
2 48273  97.5647 258.2969 0004589 225.4698 134.6186 15.65252015282167
Epoch: 2026-06-20T05:15Z
TLE epoch observation values (Epoch: 2026-06-20T05:15:05.298Z)
Latitude
-0.00006°
Longitude
-88.91175°
Altitude
377.838 km
Speed
7.682 km/s
True Right ascension
17h 13m 11s
True Declination
0° 00' 00"
Sunlit
Object was in full shadow at epoch
Visualization orbit readout
Latitude
Unknown
Longitude
Unknown
Altitude
Unknown
Speed
Unknown
Apparent Right ascension
Unknown
Apparent Declination
Unknown
Sunlit
N/A
Visualization observer readout
Local Sidereal Time
21:39:04
Azimuth
Unknown
Elevation
Unknown
Doppler factor
Unknown
Orbital elements
Apogee altitude
372.523 km
Perigee altitude
366.33 km
Semi-major axis
6,747.564 km
Eccentricity
0.00046
Inclination
97.5647°
RAAN
258.2969°
Arg. of periapsis
225.4698°
True anomaly
134.65602°
Mean anomaly
134.6186°
Eccentric anomaly
134.63731°
Mean motion
3.91582 °/min
Orbital period
91.93 mins
BSTAR
0.0014311
Loading maneuver chart data...
Computing Atmospheric mass density...
Loading historical data...
Loading historical data...
Loading historical data...
Loading historical data...
Loading historical data...
Loading historical data...
Loading historical data...
Other satellites on launch #34 in the year 2021 (2021-04-29 UTC)

Documentation

Showing up to 5 results
|